AO-07 1 07530U 74089B 18242.48106757 -.00000041 00000-0 19734-4 0 9992 2 07530 101.6945 208.7088 0011870 189.9408 280.3145 12.53633998003669 UO-11 1 14781U 84021B 18242.69129716 .00000055 00000-0 12889-4 0 9996 2 14781 97.6438 275.7064 0008177 188.5153 171.5924 14.83026492855483 LO-19 1 20442U 90005G 18242.44016403 -.00000003 00000-0 15270-4 0 9998 2 20442 098.6128 180.4876 0010727 294.2258 065.7804 14.32903070494467 HUBBLE 1 20580U 90037B 18242.66076722 .00000482 00000-0 18546-4 0 9999 2 20580 28.4703 342.7797 0002510 219.2107 282.1601 15.09085212356737 MET-2/21 1 22782U 93055A 18242.79117310 .00000029 00000-0 13219-4 0 9990 2 22782 82.5493 34.7163 0020977 278.0157 192.1403 13.83811774262499 AO-27 1 22825U 93061C 18242.45670030 -.00000008 00000-0 14707-4 0 9992 2 22825 098.8697 219.9445 0009264 125.6643 234.5402 14.30037888299912 IO-26 1 22826U 93061D 18242.80607942 -.00000009 00000-0 14153-4 0 9990 2 22826 98.8638 220.3288 0009900 115.4515 244.7692 14.30369753300423 FO-29 1 24278U 96046B 18242.76492446 -.00000043 00000-0 -42888-5 0 9991 2 24278 98.5156 71.2386 0349300 277.4441 78.7145 13.53085414 88321 NOAA-15 1 25338U 98030A 18242.57427168 .00000009 00000-0 22743-4 0 9999 2 25338 098.7677 259.0491 0010751 017.6980 342.4572 14.25872850055360 GO-32 1 25397U 98043D 18242.38973860 -.00000012 00000-0 13717-4 0 9998 2 25397 098.6529 181.6141 0001893 128.1244 232.0106 14.23650335046064 ISS 1 25544U 98067A 18242.81752663 .00003012 00000-0 53147-4 0 9995 2 25544 51.6431 6.7816 0005787 111.2387 347.9305 15.53907831130120 NO-44 1 26931U 01043C 18242.74540090 -.00000053 00000-0 11381-4 0 9992 2 26931 67.0517 37.0231 0007641 263.5817 96.4415 14.30515017883213 SO-50 1 27607U 02058C 18242.42982628 .00000004 00000-0 21431-4 0 9994 2 27607 064.5536 223.0896 0072537 312.6888 046.8119 14.75474851843788 CO-55 1 27844U 03031E 18242.88862708 .00000036 00000-0 35871-4 0 9993 2 27844 98.6874 250.4439 0010332 149.4425 210.7356 14.22130204786817 CO-57 1 27848U 03031J 18242.86879221 .00000016 00000-0 26943-4 0 9991 2 27848 98.6958 250.8469 0010040 159.6905 200.4674 14.21732260786675 RS-22 1 27939U 03042A 18242.82531256 .00000062 00000-0 19686-4 0 9990 2 27939 98.0012 20.0767 0011577 272.2439 230.9204 14.66710594797752 NOAA-18 1 28654U 05018A 18242.56075259 -.00000024 00000-0 12136-4 0 9999 2 28654 99.1394 279.5051 0013275 279.2632 80.7038 14.12383720684274 CO-58 1 28895U 05043F 18242.38649032 .00000120 00000-0 31876-4 0 9998 2 28895 097.9193 030.8788 0016582 190.3821 169.7042 14.63575067684496 Falconsat-3 1 30776U 07006E 18242.17151359 .00002294 00000-0 67842-4 0 9993 2 30776 035.4352 155.6584 0003345 322.1278 037.9213 15.34825174635695 CO-65 1 32785U 08021C 18242.48160109 .00000209 00000-0 28253-4 0 9997 2 32785 097.5473 251.1131 0013942 146.3235 213.8871 14.88165513560158 AAUSAT2 1 32788U 08021F 18242.54594781 .00000837 00000-0 82627-4 0 9996 2 32788 097.5184 265.9419 0013534 098.9050 261.3704 14.94430977561189 DO-64 1 32789U 08021G 18242.71881147 .00000541 00000-0 40972-4 0 9990 2 32789 97.5048 295.6223 0013471 49.3359 310.9037 15.06257165563007 CO-66 1 32791U 08021J 18242.71720450 .00000391 00000-0 45248-4 0 9996 2 32791 97.5349 256.8592 0014702 126.4900 233.7676 14.90614759560612 RS-30 1 32953U 08025A 18242.80925891 .00000019 00000-0 67932-4 0 9997 2 32953 82.5061 326.2737 0019667 50.2634 310.0175 12.43085221466040 PRISM 1 33493U 09002B 18242.73251238 .00000350 00000-0 36488-4 0 9992 2 33493 98.1249 147.6621 0016458 70.2868 290.0134 14.96306137521499 NOAA-19 1 33591U 09005A 18242.59920809 .00000081 00000-0 69052-4 0 9999 2 33591 099.1486 222.1279 0014893 115.8969 244.3739 14.12304036492415 TISAT-1 1 36799U 10035E 18242.61642987 .00000369 00000-0 43578-4 0 9992 2 36799 098.1168 020.8513 0011516 329.7586 030.2966 14.90865135441043 JUGNU 1 37839U 11058B 18242.37502282 .00000319 00000-0 28198-4 0 9996 2 37839 019.9618 307.3904 0018954 345.2519 096.3178 14.12626903355762 SRMSAT 1 37841U 11058D 18242.49955525 .00000300 00000-0 19389-4 0 9996 2 37841 019.9730 357.3685 0011724 226.8564 212.1205 14.10612619355297 AO-71 1 37854U 11061E 18242.51234856 .00001799 00000-0 10063-3 0 9996 2 37854 101.7012 345.5382 0163164 212.9820 146.1131 15.05631790372563 HRBE 1 37855U 11061F 18242.55598148 .00001777 00000-0 97878-4 0 9994 2 37855 101.7144 343.1279 0175986 222.0687 136.6901 15.04619762372368 ALMASAT-1 1 38078U 12006B 18242.75969065 .00019920 39228-5 16473-3 0 9993 2 38078 69.4326 9.7526 0225892 352.1862 114.8945 15.44724228352159 HORYU-2 1 38340U 12025D 18242.53045980 .00000164 00000-0 32146-4 0 9990 2 38340 098.3631 266.7895 0011022 340.9882 019.0913 14.75592062327661 RS-40 1 38735U 12041C 18242.59241892 .00000000 00000-0 -70782-4 0 9990 2 38735 082.4745 050.2157 0017355 149.8013 210.4070 12.42577240276244 BEESAT-3 1 39135U 13015F 18242.46421495 .00001008 00000-0 60819-4 0 9990 2 39135 064.8685 260.9330 0017474 232.6320 127.3215 15.16836036295527 BEESAT-2 1 39136U 13015G 18242.52622230 .00000930 00000-0 57730-4 0 9999 2 39136 064.8682 263.7195 0016806 234.4578 125.4981 15.16291325295477 ZACUBE-1 1 39417U 13066B 18242.50139055 .00000171 00000-0 28146-4 0 9999 2 39417 097.5835 267.1562 0057488 271.8139 087.6491 14.80970938257799 TRITON-1 1 39427U 13066M 18242.88475535 .00000220 00000-0 43059-4 0 9992 2 39427 97.6464 233.8827 0114646 20.7942 339.7873 14.67706219255535 GOMX-1 1 39430U 13066Q 18242.84677191 .00000209 00000-0 46379-4 0 9999 2 39430 97.7044 214.3714 0152994 94.8124 267.0565 14.59115269254041 LO-74 1 39440U 13066AA 18242.86288962 .00000177 00000-0 31834-4 0 9990 2 39440 97.6008 253.6598 0079319 313.8265 45.6406 14.75712040256938 AO-73 1 39444U 13066AE 18242.66050549 .00000228 00000-0 34635-4 0 9999 2 39444 97.5840 268.9257 0056627 266.1988 93.2750 14.81762440256684 SPROUT 1 39770U 14029E 18242.75283268 .00000871 00000-0 10350-3 0 9998 2 39770 97.8793 343.1935 0008517 331.8757 28.1997 14.86948977231447 DUCHIFAT-1 1 40021U 14033M 18242.78515660 .00000481 00000-0 55292-4 0 9993 2 40021 97.9130 161.6325 0011699 296.7488 63.2532 14.90372535228060 NANOSATCBR1 1 40024U 14033Q 18242.32597458 .00000395 00000-0 47292-4 0 9996 2 40024 97.9058 159.2661 0011077 301.1498 58.8632 14.89626396227919 EO-79 1 40025U 14033R 18242.41675208 .00000256 00000-0 33387-4 0 9993 2 40025 097.9012 157.6520 0011309 305.8205 054.1960 14.88762459227329 DTUSAT-2 1 40030U 14033W 18242.26691380 .00000249 00000-0 32954-4 0 9992 2 40030 097.8953 156.1010 0010697 301.1822 058.8345 14.88366830227241 EO-80 1 40032U 14033Y 18242.59686945 .00000250 00000-0 33041-4 0 9991 2 40032 097.8960 156.4321 0010641 300.4869 059.5296 14.88305193227272 ANTELSAT 1 40034U 14033AA 18242.60764993 .00000188 00000-0 35627-4 0 9997 2 40034 097.8002 116.4822 0058001 319.5685 040.1220 14.73961399225116 VELOX-1 1 40057U 14034E 18242.73842621 .00000344 00000-0 55823-4 0 9996 2 40057 98.2098 355.1001 0012399 90.0048 270.2587 14.77477254224652 DAURIA DX 1 1 40071U 14037C 18242.86447074 .00000157 00000-0 27580-4 0 9993 2 40071 98.3859 17.6001 0009797 81.9395 278.2935 14.81184180224053 UKUBE-1 1 40074U 14037F 18240.91278944 -.00000065 00000-0 -72198-6 0 9995 2 40074 98.3957 21.8881 0005559 76.7066 283.4767 14.83848540224080 HODOYOSHI-1 1 40299U 14070B 18242.77214020 .00001050 00000-0 47559-4 0 9996 2 40299 97.3753 323.2192 0013000 356.0800 117.5548 15.23001535211839 CHUBUSAT-1 1 40300U 14070C 18242.79955853 .00001253 00000-0 58176-4 0 9999 2 40300 97.3591 318.8878 0020731 4.9666 110.0432 15.21683634211622 QSAT-EOS 1 40301U 14070D 18242.86617404 .00002870 00000-0 11685-3 0 9994 2 40301 97.3559 320.5608 0026297 353.3229 98.7625 15.24997175211804 FIREBIRD FU3 1 40377U 15003B 18242.76920913 .00002416 00000-0 10125-3 0 9999 2 40377 99.0802 159.2884 0130227 343.1116 16.5796 15.17529475197638 FIREBIRD FU4 1 40378U 15003C 18242.75762661 .00002260 00000-0 94903-4 0 9997 2 40378 99.0804 159.3359 0130452 343.0376 16.6510 15.17537538197630 GRIFEX 1 40379U 15003D 18242.73841658 .00001511 00000-0 69479-4 0 9998 2 40379 99.0820 155.0792 0137883 356.8363 3.1978 15.14558329197385 NO-84 1 40654U 15025D 18242.17359839 .00006940 00000-0 11521-3 0 03923 2 40654 054.9910 061.7614 0151003 298.3453 060.2354 15.41672725067258 NO-83 1 40655U 15025E 18242.32468099 .00021006 00000-0 20659-3 0 04585 2 40655 054.9752 355.1843 0100260 339.6305 020.0578 15.59826262067844 DEORBITSAIL 1 40719U 15032E 18242.25717578 .00000382 00000-0 61993-4 0 9996 2 40719 97.9356 134.5368 0016457 164.1360 196.0369 14.76498195169101 NUDT-PHONESAT 1 40900U 15049B 18242.88615431 .00002174 00000-0 99185-4 0 9995 2 40900 97.4417 250.2901 0014821 123.5803 236.6850 15.21603396163279 XW-2A 1 40903U 15049E 18242.80498417 .00001631 00000-0 41813-4 0 9995 2 40903 97.3782 278.3894 0015710 117.9506 242.3333 15.40765807165294 XW-2C 1 40906U 15049H 18242.80911139 .00000636 00000-0 37213-4 0 9992 2 40906 97.4619 244.9437 0016332 127.3712 232.9010 15.15287579162790 XW-2D 1 40907U 15049J 18242.88600821 .00000694 00000-0 40120-4 0 9999 2 40907 97.4594 244.7082 0015738 124.8898 235.3816 15.15446144162812 LILACSAT-2 1 40908U 15049K 18242.85187853 .00000332 00000-0 22085-4 0 9991 2 40908 97.4709 243.9355 0017329 127.9677 232.3123 15.13569965162668 XW-2F 1 40910U 15049M 18242.84064762 .00001032 00000-0 55972-4 0 9995 2 40910 97.4591 246.1148 0016530 120.7315 239.5549 15.16686275162778 XW-2B 1 40911U 15049N 18242.84029540 .00000683 00000-0 39610-4 0 9993 2 40911 97.4628 245.2284 0015642 125.6574 234.6117 15.15387778162700 DCBB 1 40912U 15049P 18242.77949074 .00002007 00000-0 99085-4 0 9993 2 40912 97.4510 249.0621 0016976 108.8463 243.0188 15.18927842162986 TW-1C 1 40926U 15051B 18242.79015301 .00013557 00000-0 24138-3 0 9998 2 40926 97.1768 284.8114 0008964 15.3303 75.0666 15.50201020164862 TW-1A 1 40928U 15051D 18242.85945895 .00005057 00000-0 13231-3 0 9995 2 40928 97.1803 275.3637 0013579 54.9749 65.7233 15.39090091164261 IO-86 1 40931U 15052B 18241.79981481 .00000420 00000-0 -30871-4 0 9993 2 40931 6.0021 345.3663 0014965 337.1254 291.3386 14.76580694157890 LQSat 1 40958U 15057A 18242.88620460 .00000051 00000-0 15610-4 0 9998 2 40958 97.9357 314.3653 0019486 96.5376 263.8037 14.73045019155843 AO-85 1 40967U 15058D 18242.40425662 .00000330 00000-0 51499-4 0 04332 2 40967 064.7781 325.9430 0212235 291.1555 066.7008 14.75765097064604 ATHENOXAT-1 1 41168U 15077C 18242.13919815 .00003130 00000-0 13458-3 0 9995 2 41168 14.9910 199.0077 0011452 348.3670 127.9039 15.12942168149591 ChubuSat-2 1 41338U 16012B 18242.31135804 .00000381 00000-0 23057-4 0 9994 2 41338 031.0021 202.6918 0013787 087.7333 272.4881 15.00016354138978 ChubuSat-3 1 41339U 16012C 18242.33975058 .00000452 00000-0 28523-4 0 9992 2 41339 31.0102 201.0004 0013433 95.4929 33.6732 15.00201749138968 Horyu-4 1 41340U 16012D 18242.26735029 .00000567 00000-0 36567-4 0 9992 2 41340 031.0041 195.5368 0014057 108.5384 251.6780 15.01042487139033 OUFTI-1 1 41458U 16025C 18242.77951335 .00001945 00000-0 10508-3 0 9999 2 41458 98.1316 309.5997 0167750 257.4698 100.7699 15.04886673128653 e-st@r-II 1 41459U 16025D 18242.73368534 .00002406 00000-0 12909-3 0 9999 2 41459 98.1308 309.3598 0169549 258.4897 99.7220 15.04597745128634 AAUSAT4 1 41460U 16025E 18242.77197355 .00002430 00000-0 12894-3 0 9996 2 41460 98.1239 310.0275 0159982 253.8978 104.4581 15.06114953128710 LO-87 1 41557U 16033B 18242.77576000 .00001304 00000-0 51900-4 0 9991 2 41557 97.4353 326.8023 0012011 245.7756 114.2228 15.27033314125546 NuSat2 1 41558U 16033C 18242.81531746 .00001067 00000-0 41342-4 0 9990 2 41558 97.4370 327.0315 0011627 249.2155 110.7839 15.28334434125544 Lapan A3 1 41603U 16040E 18242.87983240 .00000378 00000-0 20917-4 0 9994 2 41603 97.4050 303.0190 0013128 346.7704 100.9201 15.19600515121429 Swayam 1 41607U 16040J 18242.72578482 .00001515 00000-0 68417-4 0 9991 2 41607 97.4069 304.6587 0013105 344.1283 15.9541 15.22442659121440 Pratham 1 41783U 16059A 18242.14233844 .00000047 00000-0 18461-4 0 9995 2 41783 98.1112 302.4824 0032736 221.6666 138.2042 14.62939679102773 AlSat 1N 1 41789U 16059G 18242.72080705 .00000105 00000-0 29021-4 0 9990 2 41789 98.1132 304.4266 0027523 211.0377 148.9202 14.64175512102926 ScatSat 1 41790U 16059H 18242.72609986 .00000004 00000-0 12243-4 0 9996 2 41790 98.2531 289.1368 0017307 219.9024 140.0900 14.50866215101995 TY-1 1 41844U 16066D 18242.88296914 .00002492 00000-0 10720-3 0 9994 2 41844 97.4062 248.8663 0016607 129.8578 280.2832 15.23457838100257 Pegasus-1 1 41846U 16066F 18242.53408849 .00000307 00000-0 56918-4 0 9993 2 41846 098.7495 272.4962 0368579 026.4618 335.4878 14.37390733094588 CAS-2T 1 41847U 16066G 18242.70788120 .00000073 00000-0 21391-4 0 9993 2 41847 98.7455 273.1472 0366561 23.2556 338.4750 14.37917366 95034 TO-89 1 41932U 98067KU 18242.42395696 .00041460 00000-0 20361-3 0 9990 2 41932 051.6305 316.8557 0002147 075.7879 284.3362 15.81770098092491 AOBA-V3LOX3 1 41935U 98067KX 18242.56381741 .00072077 00000-0 24414-3 0 9995 2 41935 051.6327 308.6992 0003202 030.7362 329.3831 15.89246273092718 EO-88 1 42017U 17008BX 18242.85486046 .00001255 00000-0 53721-4 0 9993 2 42017 97.4417 307.4531 0008033 112.6815 247.5273 15.24655119 85449 HAVELSAT 1 42700U 98067LH 18242.78825078 .00030562 00000-0 20041-3 0 9991 2 42700 51.6335 332.1418 0001381 180.0618 180.0381 15.75476229 73769 SOMP2 1 42701U 98067LJ 18242.76753787 .00026773 00000-0 18658-3 0 9997 2 42701 51.6346 334.2702 0001610 170.0512 190.0519 15.74143624 73727 PHOENIX 1 42706U 98067LP 18242.67910681 .00021123 00000-0 16114-3 0 9999 2 42706 51.6354 335.9489 0001206 53.0991 307.0118 15.72170697 73614 X-CubeSat 1 42707U 98067LQ 18242.79753578 .00034038 00000-0 21316-3 0 9992 2 42707 51.6330 331.3559 0001528 36.3103 323.8001 15.76472458 73670 qbee 1 42708U 98067LR 18242.79240811 .00029963 00000-0 19857-3 0 9992 2 42708 51.6345 332.9252 0001491 18.9343 341.1712 15.75243613 73619 ZA-AeroSat 1 42713U 98067LU 18242.77402831 .00019358 00000-0 15736-3 0 9997 2 42713 51.6351 338.8235 0002123 62.9023 297.2191 15.70714207 73243 LINK 1 42714U 98067LV 18242.59214124 .00203630 27586-4 48057-3 0 9996 2 42714 51.6192 318.4074 0007341 0.6481 359.4536 15.96351647 73603 UPSat 1 42716U 98067LX 18242.46540513 .00068279 00000-0 30162-3 0 9992 2 42716 051.6301 326.0990 0001962 353.8709 006.2270 15.83822455073516 SpaceCube 1 42717U 98067LY 18242.76192896 .00028304 00000-0 18948-3 0 9996 2 42717 51.6309 333.4232 0000394 177.8946 182.2055 15.75042669 72686 Hoopoe 1 42718U 98067LZ 18242.63419127 .00043145 00000-0 23572-3 0 9991 2 42718 51.6289 329.5360 0000826 20.6807 339.4228 15.79421852 72725 NJUST-1 1 42722U 98067MB 18242.81978749 .00018646 00000-0 15902-3 0 9992 2 42722 51.6357 340.6622 0003828 147.8631 212.2600 15.69576364 72295 UNSW-EC0 1 42723U 98067MC 18242.83803352 .00053215 00000-0 26947-3 0 9994 2 42723 51.6386 327.9807 0000593 98.7348 261.3721 15.80996956 72448 LO-90 1 42725U 98067ME 18242.85050413 .00026151 00000-0 19117-3 0 9990 2 42725 51.6361 336.3448 0002278 143.3479 216.7675 15.73036176 72254 nSIGHT1 1 42726U 98067MF 18242.71666120 .00009080 00000-0 10490-3 0 9991 2 42726 51.6398 351.3286 0004814 147.8054 212.3235 15.62717474 72055 SNUSAT 1B 1 42727U 98067MG 18242.48230627 .00027710 00000-0 20241-3 0 9990 2 42727 051.6339 338.3145 0004351 105.4216 254.7264 15.73012534072167 QBITO 1 42728U 98067MH 18242.51516193 .00035987 00000-0 23455-3 0 9995 2 42728 051.6373 334.9049 0000431 085.1991 274.9057 15.75530267072052 Aalto-2 1 42729U 98067MJ 18242.85832024 .00031730 00000-0 20288-3 0 9990 2 42729 51.6326 332.6044 0000452 40.0377 320.0656 15.76034953 72120 SUSat 1 42730U 98067MK 18242.87362524 .00026507 00000-0 18786-3 0 9993 2 42730 51.6344 334.9717 0000707 121.1881 238.9187 15.73756322 72087 i-INSPIRE II 1 42731U 98067ML 18242.60717413 .00048639 00000-0 23682-3 0 9997 2 42731 051.6347 327.8343 0003378 050.6739 309.4562 15.81880128072208 PolyITAN-2-SAU 1 42732U 98067MM 18242.87747778 .00031003 00000-0 19685-3 0 9999 2 42732 51.6330 331.9499 0003857 80.6303 279.5133 15.76202254 72170 ExAlta-1 1 42734U 98067MP 18242.60626955 .00061446 00000-0 27777-3 0 9990 2 42734 051.6272 326.9766 0001899 074.8074 285.3139 15.83375944072167 Aoxiang-1 1 42735U 98067MQ 18242.76796258 .00018880 00000-0 15809-3 0 9999 2 42735 51.6351 340.2842 0004182 144.0715 216.0565 15.70012346 73424 BeEagleSat 1 42736U 98067MR 18242.87026989 .00022325 00000-0 17081-3 0 9992 2 42736 51.6344 337.1948 0003496 144.2208 215.9025 15.72058381 72165 CAS-4B 1 42759U 17034B 18242.72628693 .00000393 00000-0 37703-4 0 9991 2 42759 43.0190 34.0423 0010013 221.1126 265.9311 15.09354194 66710 CAS-4A 1 42761U 17034D 18242.77213634 .00000536 00000-0 46444-4 0 9995 2 42761 43.0194 33.5146 0010452 222.8694 273.5387 15.09431591 66713 UCLSat 1 42765U 17036A 18242.83285623 .00001323 00000-0 60885-4 0 9995 2 42765 97.3943 301.4586 0012127 166.9750 193.1801 15.22020431 66066 NIUSat 1 42766U 17036B 18242.17166011 .00001166 00000-0 56267-4 0 9996 2 42766 97.3944 299.9216 0016539 159.7599 200.4296 15.20530408 65776 LituanicaSAT 2 1 42768U 17036D 18242.58232687 .00001804 00000-0 82662-4 0 9993 2 42768 097.3958 300.7823 0016349 159.9843 200.2038 15.21643621065877 Aalto 1 1 42775U 17036L 18242.38329986 .00000891 00000-0 43356-4 0 9990 2 42775 97.3936 300.3726 0014782 158.6635 201.5220 15.20861438 65776 URSA MAIOR 1 42776U 17036M 18242.16841553 .00001023 00000-0 49211-4 0 9990 2 42776 97.3943 300.2287 0014622 159.4797 200.7029 15.20951092 65748 Max Valier Sat 1 42778U 17036P 18242.17401092 .00001138 00000-0 53625-4 0 9994 2 42778 97.3970 300.6380 0013115 163.3431 196.8238 15.21447867 65752 Pegasus 1 42784U 17036V 18242.15651057 .00001350 00000-0 62409-4 0 9993 2 42784 97.3947 300.7010 0012573 169.7196 190.4300 15.21820774 65762 NUDATSat 1 42787U 17036Y 18242.70244922 .00001886 00000-0 84360-4 0 9990 2 42787 97.3955 301.5148 0012214 167.0131 193.1423 15.22468468 65706 SUCHAI 1 1 42788U 17036Z 18242.16582464 .00001341 00000-0 61461-4 0 9990 2 42788 097.3944 300.8415 0012241 169.0785 191.0720 15.22117528065841 SKCUBE 1 42789U 17036AA 18242.16734794 .00001485 00000-0 67880-4 0 9996 2 42789 097.3946 300.8304 0012046 169.1540 190.9958 15.22066857065764 VZLUSAT 1 1 42790U 17036AB 18242.09933476 .00001696 00000-0 76160-4 0 9993 2 42790 097.3948 300.9287 0011737 168.9570 191.1926 15.22484374065761 VENTA 1 1 42791U 17036AC 18242.60681435 .00001315 00000-0 60360-4 0 9999 2 42791 097.3945 301.3066 0011713 167.9576 192.1943 15.22108066065826 Robusta 1B 1 42792U 17036AD 18242.58905041 .00001154 00000-0 53176-4 0 9997 2 42792 097.3941 301.3230 0011685 168.1485 192.0029 15.22221230065841 D-SAT 1 42794U 17036AF 18242.60917073 .00000306 00000-0 32016-4 0 9998 2 42794 097.5846 294.4259 0127834 035.2163 325.7419 14.90919593064817 BIRD-J 1 42820U 98067MU 18242.47604279 .00023400 00000-0 18671-3 0 9997 2 42820 051.6348 342.0757 0002586 059.2481 300.8771 15.71024098065546 BIRD-G 1 42821U 98067MV 18242.43006576 .00022525 00000-0 18551-3 0 9994 2 42821 051.6349 343.2747 0002584 064.0321 296.0942 15.70287042065506 BIRD-M 1 42822U 98067MW 18242.58840561 .00021080 00000-0 17130-3 0 9998 2 42822 051.6352 342.0859 0002541 063.9324 296.1935 15.70657952065533 BIRD-B 1 42823U 98067MX 18242.45140295 .00024177 00000-0 19435-3 0 9992 2 42823 051.6359 342.6931 0003929 096.3788 263.7657 15.70819449065513 BIRD-N 1 42824U 98067MY 18242.42323181 .00023344 00000-0 19008-3 0 9998 2 42824 051.6362 343.2756 0003918 097.5743 262.5700 15.70533496065502 TechnoSat 1 42829U 17042E 18242.73058196 .00000257 00000-0 31508-4 0 9990 2 42829 97.5884 142.2465 0013223 316.7075 43.3103 14.90853600 61436 TOMSK-TPU 120 1 42910U 98067MZ 18242.82779011 .00015092 00000-0 14673-3 0 9999 2 42910 51.6354 347.4382 0004944 125.1984 234.9475 15.66518167 59075 TANYUSHA 1 1 42911U 98067NA 18242.88225004 .00017284 00000-0 15806-3 0 9998 2 42911 51.6359 345.5900 0004383 118.8303 241.3133 15.67923160 59085 TANYUSHA 2 1 42912U 98067NB 18242.78783052 .00016919 00000-0 15953-3 0 9997 2 42912 51.6384 347.2020 0003839 131.4334 228.6992 15.67183955 59076 SFERA 2 1 42913U 98067NC 18242.83112064 .00054047 00000-0 29076-3 0 9998 2 42913 51.6353 333.8557 0000649 30.7549 329.3491 15.79664743 59215 TNS 0-2 1 42914U 98067ND 18242.75476968 .00015296 00000-0 14982-3 0 9999 2 42914 51.6366 348.5031 0004068 125.0935 235.0442 15.66322787 59041 QIKCOM-1 1 42983U 98067NF 18242.87809600 .00002733 00000-0 44338-4 0 9992 2 42983 51.6409 2.9116 0004604 113.3037 246.8440 15.56716631 47857 AO-91 1 43017U 17073E 18242.54281342 .00001081 00000-0 89588-4 0 9991 2 43017 097.7075 170.5779 0260395 029.8709 331.7078 14.78163077042096 EcAMSat 1 43019U 98067NG 18242.71605330 .00004198 00000-0 62006-4 0 9999 2 43019 51.6411 2.5855 0005338 90.7735 269.3869 15.57780745130165 PICSAT 1 43132U 18004X 18242.16876994 .00001273 00000-0 57492-4 0 9997 2 43132 97.5274 305.0293 0009611 190.3969 169.7070 15.22810370 34977 AO-92 1 43137U 18004AC 18242.41736752 .00001145 00000-0 51953-4 0 9991 2 43137 097.5273 305.3025 0009092 190.9526 169.1514 15.22855362035018 TianYi 2 1 43155U 18008A 18242.88621694 .00001813 00000-0 11313-3 0 9991 2 43155 97.5209 316.0813 0016542 245.7028 239.0832 15.10676004 33766 Zhou Enlai 1 43156U 18008B 18242.89420539 .00001517 00000-0 96738-4 0 9994 2 43156 97.5245 316.0355 0013578 243.5865 205.4349 15.10140585 33758 TianYi 6 1 43158U 18008D 18242.80928413 .00001548 00000-0 99503-4 0 9998 2 43158 97.5205 315.7429 0012948 240.0112 237.5535 15.09836486 33710 S-Net G 1 43186U 18014G 18242.71014947 .00000142 00000-0 17615-4 0 9997 2 43186 97.7191 150.2080 0009372 262.8072 97.2084 14.96494551 31464 S-Net H 1 43187U 18014H 18242.71002971 .00000148 00000-0 18177-4 0 9992 2 43187 97.7189 150.2032 0009366 262.7131 97.3026 14.96495353 31465 S-Net J 1 43188U 18014J 18242.70991377 .00000157 00000-0 18952-4 0 9990 2 43188 97.7192 150.2100 0009356 262.8686 97.1472 14.96496107 31462 S-Net K 1 43189U 18014K 18242.71007348 .00000160 00000-0 19177-4 0 9992 2 43189 97.7189 150.2022 0009361 262.6480 97.3678 14.96495035 30017 FMN 1 1 43192U 18015A 18242.61250698 .00002626 00000-0 11415-3 0 9999 2 43192 097.3659 010.0186 0015438 238.6304 121.3424 15.23067458031847 Shaonian Xing 1 43199U 18015H 18242.61900528 .00001982 00000-0 84803-4 0 9996 2 43199 097.3440 009.6993 0016122 252.3778 107.5707 15.23878611031875 1KUNS-PF 1 43466U 98067NP 18242.72150138 .00009358 00000-0 13310-3 0 9993 2 43466 51.6405 5.6125 0000657 35.2535 324.8500 15.57128765 17306 UBAKUSAT 1 43467U 98067NQ 18242.66923805 .00006838 00000-0 10076-3 0 9992 2 43467 51.6411 6.0165 0002888 50.1192 310.0054 15.56673971 17300 Irazu 1 43468U 98067NR 18242.70676213 .00011734 00000-0 16273-3 0 9992 2 43468 51.6407 5.5138 0000537 21.8477 338.2538 15.57527515117291 EnduroSat One 1 43551U 98067NZ 18242.57138074 .00008673 00000-0 13136-3 0 9991 2 43551 051.6406 007.6037 0006614 129.8999 230.2575 15.55510126007506 EQUISat 1 43552U 98067PA 18242.57208823 .00007836 00000-0 11972-3 0 9998 2 43552 051.6409 007.6089 0006885 130.2194 229.9401 15.55426813007467 UiTMSat 1 1 43589U 98067PD 18242.72437800 .00007609 00000-0 11852-3 0 9999 2 43589 51.6406 7.1236 0006175 139.5231 220.6220 15.54943278 3224 Maya 1 1 43590U 98067PE 18242.72401444 .00007757 00000-0 12057-3 0 9998 2 43590 51.6407 7.1212 0006275 140.5228 219.6221 15.54972091 3156 Bhutan 1 1 43591U 98067PF 18242.40220648 .00008802 00000-0 13566-3 0 9997 2 43591 051.6407 008.7219 0006404 141.0600 219.0853 15.55004712003102 SiriusSat 1 1 43595U 98067PG 18241.83012834 .00009429 00000-0 14704-3 0 9994 2 43595 051.6407 011.6470 0003965 089.0465 271.0980 15.54587331002196 SiriusSat 2 1 43596U 98067PH 18242.34565319 .00008718 00000-0 13712-3 0 9991 2 43596 051.6416 009.0921 0004669 094.1790 265.9735 15.54462970002279 /EX
